Date,TemperatureHighF,TemperatureAvgF,TemperatureLowF,DewpointHighF,DewpointAvgF,DewpointLowF,HumidityHigh,HumidityAvg,HumidityLow,PressureMaxIn,PressureMinIn,WindSpeedMaxMPH,WindSpeedAvgMPH,GustSpeedMaxMPH,PrecipitationSumIn
2013-2-1,43.3,31.3,22.6,41.8,21.2,13.2,98,68,38,30.21,29.80,7,2,0,0.00
2013-2-2,38.3,29.8,20.8,37.8,29.0,20.3,98,97,79,30.12,29.86,6,1,0,0.00
2013-2-3,55.9,39.7,29.7,45.9,34.0,29.2,98,83,44,29.91,29.77,5,1,0,0.00
2013-2-4,51.6,38.3,25.9,37.1,31.2,25.4,98,78,45,29.92,29.72,6,1,0,0.00
2013-2-5,64.4,50.6,41.2,53.7,45.0,35.0,98,83,50,29.79,29.68,4,1,0,0.01
2013-2-6,67.3,48.5,34.5,49.1,40.3,34.0,98,78,35,29.97,29.79,5,0,0,0.00
2013-2-7,56.8,49.0,41.7,54.9,48.0,41.2,98,96,82,29.89,29.69,2,0,0,0.04
2013-2-8,59.2,47.0,38.3,55.2,44.9,37.8,98,93,67,30.01,29.66,5,1,0,0.05
2013-2-9,59.0,43.9,32.0,41.4,36.0,31.5,98,77,40,30.11,29.97,5,1,0,0.00
2013-2-10,62.2,49.9,41.2,54.1,45.1,36.8,98,87,43,30.00,29.72,8,1,0,0.53
2013-2-11,58.3,52.8,43.7,56.8,52.0,43.2,98,97,83,29.89,29.73,5,0,0,0.04
2013-2-12,53.6,45.9,36.3,46.6,40.5,35.8,98,84,54,29.92,29.58,3,0,0,0.04
2013-2-13,51.1,43.6,38.3,50.6,43.1,37.8,98,98,98,29.77,29.45,5,1,0,0.10
2013-2-14,59.0,45.4,36.7,44.5,40.0,36.2,98,83,52,29.85,29.76,5,0,0,0.00
2013-2-15,61.9,45.5,35.4,49.8,40.6,34.4,98,85,53,29.86,29.76,6,1,0,0.00
2013-2-16,43.0,34.4,24.4,36.9,26.8,17.1,98,77,36,29.92,29.78,8,1,0,0.00
2013-2-17,48.0,31.9,17.1,25.5,19.5,14.9,98,66,28,30.06,29.92,7,1,0,0.00
2013-2-18,61.2,44.2,25.9,37.3,30.0,22.3,98,62,36,30.08,29.73,8,2,0,0.00
2013-2-19,56.8,44.7,36.0,52.6,34.3,10.6,98,73,17,29.97,29.69,11,2,0,0.43
2013-2-20,43.9,34.4,23.2,28.6,22.3,16.0,98,65,32,30.02,29.91,5,1,0,0.00
2013-2-21,57.2,40.6,28.8,47.2,28.5,20.5,98,66,30,29.99,29.71,4,0,0,0.74
2013-2-22,52.2,47.0,41.7,51.7,46.5,41.2,98,98,98,29.84,29.75,4,1,0,0.24
2013-2-23,56.8,48.4,42.4,56.2,47.9,41.9,98,98,98,29.79,29.59,3,0,0,0.26
2013-2-24,60.8,45.0,31.6,42.8,36.5,31.1,98,77,37,29.83,29.68,3,0,0,0.00
2013-2-25,61.2,47.1,36.3,47.3,38.0,32.3,98,73,47,29.79,29.52,3,0,0,0.00